Year,Month,Day,Hour,Minute,Value (Times are PST for temperature in C)
2018,07,24,00,00,16.80
2018,07,24,00,01,16.80
2018,07,24,00,02,16.80
2018,07,24,00,03,16.80
2018,07,24,00,04,16.70
2018,07,24,00,05,16.70
2018,07,24,00,06,16.70
2018,07,24,00,07,16.70
2018,07,24,00,08,16.70
2018,07,24,00,09,16.70
2018,07,24,00,10,16.70
2018,07,24,00,11,16.70
2018,07,24,00,12,16.60
2018,07,24,00,13,16.60
2018,07,24,00,14,16.60
2018,07,24,00,15,16.50
2018,07,24,00,16,16.50
2018,07,24,00,17,16.50
2018,07,24,00,18,16.40
2018,07,24,00,19,16.40
2018,07,24,00,20,16.40
2018,07,24,00,21,16.30
2018,07,24,00,22,16.30
2018,07,24,00,23,16.30
2018,07,24,00,24,16.30
2018,07,24,00,25,16.20
2018,07,24,00,26,16.20
2018,07,24,00,27,16.20
2018,07,24,00,28,16.20
2018,07,24,00,29,16.20
2018,07,24,00,30,16.20
2018,07,24,00,31,16.20
2018,07,24,00,32,16.20
2018,07,24,00,33,16.20
2018,07,24,00,34,16.20
2018,07,24,00,35,16.20
2018,07,24,00,36,16.10
2018,07,24,00,37,16.10
2018,07,24,00,38,16.10
2018,07,24,00,39,16.10
2018,07,24,00,40,16.10
2018,07,24,00,41,16.10
2018,07,24,00,42,16.10
2018,07,24,00,43,16.10
2018,07,24,00,44,16.10
2018,07,24,00,45,16.10
2018,07,24,00,46,16.10
2018,07,24,00,47,16.00
2018,07,24,00,48,16.00
2018,07,24,00,49,15.90
2018,07,24,00,50,15.90
2018,07,24,00,51,15.80
2018,07,24,00,52,15.80
2018,07,24,00,53,15.80
2018,07,24,00,54,15.80
2018,07,24,00,55,15.80
2018,07,24,00,56,15.80
2018,07,24,00,57,15.80
2018,07,24,00,58,15.80
2018,07,24,00,59,15.70
2018,07,24,01,00,15.70
2018,07,24,01,01,15.70
2018,07,24,01,02,15.80
2018,07,24,01,03,15.80
2018,07,24,01,04,15.80
2018,07,24,01,05,15.80
2018,07,24,01,06,15.80
2018,07,24,01,07,15.80
2018,07,24,01,08,15.80
2018,07,24,01,09,15.70
2018,07,24,01,10,15.70
2018,07,24,01,11,15.70
2018,07,24,01,12,15.70
2018,07,24,01,13,15.60
2018,07,24,01,14,15.60
2018,07,24,01,15,15.60
2018,07,24,01,16,15.60
2018,07,24,01,17,15.60
2018,07,24,01,18,15.50
2018,07,24,01,19,15.50
2018,07,24,01,20,15.40
2018,07,24,01,21,15.40
2018,07,24,01,22,15.40
2018,07,24,01,23,15.40
2018,07,24,01,24,15.40
2018,07,24,01,25,15.30
2018,07,24,01,26,15.30
2018,07,24,01,27,15.30
2018,07,24,01,28,15.30
2018,07,24,01,29,15.30
2018,07,24,01,30,15.30
2018,07,24,01,31,15.30
2018,07,24,01,32,15.30
2018,07,24,01,33,15.20
2018,07,24,01,34,15.20
2018,07,24,01,35,15.20
2018,07,24,01,36,15.20
2018,07,24,01,37,15.20
2018,07,24,01,38,15.20
2018,07,24,01,39,15.20
2018,07,24,01,40,15.20
2018,07,24,01,41,15.20
2018,07,24,01,42,15.20
2018,07,24,01,43,15.20
2018,07,24,01,44,15.20
2018,07,24,01,45,15.20
2018,07,24,01,46,15.20
2018,07,24,01,47,15.20
2018,07,24,01,48,15.20
2018,07,24,01,49,15.20
2018,07,24,01,50,15.20
2018,07,24,01,51,15.20
2018,07,24,01,52,15.20
2018,07,24,01,53,15.20
2018,07,24,01,54,15.10
2018,07,24,01,55,15.10
2018,07,24,01,56,15.10
2018,07,24,01,57,15.10
2018,07,24,01,58,15.10
2018,07,24,01,59,15.00
2018,07,24,02,00,15.00
2018,07,24,02,01,15.00
2018,07,24,02,02,15.00
2018,07,24,02,03,15.00
2018,07,24,02,04,14.90
2018,07,24,02,05,14.90
2018,07,24,02,06,14.90
2018,07,24,02,07,14.90
2018,07,24,02,08,14.90
2018,07,24,02,09,14.90
2018,07,24,02,10,14.90
2018,07,24,02,11,14.80
2018,07,24,02,12,14.80
2018,07,24,02,13,14.80
2018,07,24,02,14,14.80
2018,07,24,02,15,14.80
2018,07,24,02,16,14.80
2018,07,24,02,17,14.80
2018,07,24,02,18,14.80
2018,07,24,02,19,14.80
2018,07,24,02,20,14.70
2018,07,24,02,21,14.70
2018,07,24,02,22,14.70
2018,07,24,02,23,14.70
2018,07,24,02,24,14.70
2018,07,24,02,25,14.70
2018,07,24,02,26,14.70
2018,07,24,02,27,14.80
2018,07,24,02,28,14.80
2018,07,24,02,29,14.80
2018,07,24,02,30,14.90
2018,07,24,02,31,14.90
2018,07,24,02,32,14.90
2018,07,24,02,33,15.00
2018,07,24,02,34,15.00
2018,07,24,02,35,15.00
2018,07,24,02,36,15.00
2018,07,24,02,37,15.10
2018,07,24,02,38,15.10
2018,07,24,02,39,15.10
2018,07,24,02,40,15.10
2018,07,24,02,41,15.10
2018,07,24,02,42,15.10
2018,07,24,02,43,15.20
2018,07,24,02,44,15.20
2018,07,24,02,45,15.20
2018,07,24,02,46,15.20
2018,07,24,02,47,15.20
2018,07,24,02,48,15.20
2018,07,24,02,49,15.20
2018,07,24,02,50,15.20
2018,07,24,02,51,15.30
2018,07,24,02,52,15.30
2018,07,24,02,53,15.30
2018,07,24,02,54,15.30
2018,07,24,02,55,15.30
2018,07,24,02,56,15.30
2018,07,24,02,57,15.30
2018,07,24,02,58,15.30
2018,07,24,02,59,15.20
2018,07,24,03,00,15.20
2018,07,24,03,01,15.20
2018,07,24,03,02,15.20
2018,07,24,03,03,15.20
2018,07,24,03,04,15.10
2018,07,24,03,05,15.10
2018,07,24,03,06,15.10
2018,07,24,03,07,15.00
2018,07,24,03,08,15.00
2018,07,24,03,09,14.90
2018,07,24,03,10,14.90
2018,07,24,03,11,14.80
2018,07,24,03,12,14.80
2018,07,24,03,13,14.70
2018,07,24,03,14,14.70
2018,07,24,03,15,14.60
2018,07,24,03,16,14.60
2018,07,24,03,17,14.50
2018,07,24,03,18,14.50
2018,07,24,03,19,14.50
2018,07,24,03,20,14.40
2018,07,24,03,21,14.40
2018,07,24,03,22,14.40
2018,07,24,03,23,14.40
2018,07,24,03,24,14.40
2018,07,24,03,25,14.40
2018,07,24,03,26,14.40
2018,07,24,03,27,14.40
2018,07,24,03,28,14.50
2018,07,24,03,29,14.50
2018,07,24,03,30,14.50
2018,07,24,03,31,14.40
2018,07,24,03,32,14.40
2018,07,24,03,33,14.30
2018,07,24,03,34,14.30
2018,07,24,03,35,14.20
2018,07,24,03,36,14.10
2018,07,24,03,37,14.00
2018,07,24,03,38,14.00
2018,07,24,03,39,13.90
2018,07,24,03,40,13.90
2018,07,24,03,41,13.90
2018,07,24,03,42,13.90
2018,07,24,03,43,13.90
2018,07,24,03,44,13.80
2018,07,24,03,45,13.80
2018,07,24,03,46,13.80
2018,07,24,03,47,13.70
2018,07,24,03,48,13.70
2018,07,24,03,49,13.70
2018,07,24,03,50,13.70
2018,07,24,03,51,13.70
2018,07,24,03,52,13.70
2018,07,24,03,53,13.60
2018,07,24,03,54,13.60
2018,07,24,03,55,13.70
2018,07,24,03,56,13.60
2018,07,24,03,57,13.60
2018,07,24,03,58,13.60
2018,07,24,03,59,13.60
2018,07,24,04,00,13.60
2018,07,24,04,01,13.60
2018,07,24,04,02,13.50
2018,07,24,04,03,13.50
2018,07,24,04,04,13.50
2018,07,24,04,05,13.40
2018,07,24,04,06,13.40
2018,07,24,04,07,13.40
2018,07,24,04,08,13.40
2018,07,24,04,09,13.40
2018,07,24,04,10,13.40
2018,07,24,04,11,13.40
2018,07,24,04,12,13.40
2018,07,24,04,13,13.40
2018,07,24,04,14,13.30
2018,07,24,04,15,13.30
2018,07,24,04,16,13.30
2018,07,24,04,17,13.30
2018,07,24,04,18,13.30
2018,07,24,04,19,13.30
2018,07,24,04,20,13.40
2018,07,24,04,21,13.40
2018,07,24,04,22,13.40
2018,07,24,04,23,13.40
2018,07,24,04,24,13.40
2018,07,24,04,25,13.40
2018,07,24,04,26,13.40
2018,07,24,04,27,13.40
2018,07,24,04,28,13.40
2018,07,24,04,29,13.40
2018,07,24,04,30,13.40
2018,07,24,04,31,13.40
2018,07,24,04,32,13.40
2018,07,24,04,33,13.40
2018,07,24,04,34,13.30
2018,07,24,04,35,13.30
2018,07,24,04,36,13.30
2018,07,24,04,37,13.30
2018,07,24,04,38,13.20
2018,07,24,04,39,13.20
2018,07,24,04,40,13.10
2018,07,24,04,41,13.10
2018,07,24,04,42,13.10
2018,07,24,04,43,13.00
2018,07,24,04,44,13.00
2018,07,24,04,45,13.00
2018,07,24,04,46,13.00
2018,07,24,04,47,13.00
2018,07,24,04,48,13.00
2018,07,24,04,49,12.90
2018,07,24,04,50,12.90
2018,07,24,04,51,12.90
2018,07,24,04,52,12.90
2018,07,24,04,53,12.90
2018,07,24,04,54,12.90
2018,07,24,04,55,12.90
2018,07,24,04,56,12.90
2018,07,24,04,57,12.90
2018,07,24,04,58,12.90
2018,07,24,04,59,12.90
2018,07,24,05,00,12.90
2018,07,24,05,01,12.90
2018,07,24,05,02,12.80
2018,07,24,05,03,12.80
2018,07,24,05,04,12.80
2018,07,24,05,05,12.70
2018,07,24,05,06,12.70
2018,07,24,05,07,12.60
2018,07,24,05,08,12.60
2018,07,24,05,09,12.50
2018,07,24,05,10,12.50
2018,07,24,05,11,12.50
2018,07,24,05,12,12.40
2018,07,24,05,13,12.40
2018,07,24,05,14,12.30
2018,07,24,05,15,12.30
2018,07,24,05,16,12.30
2018,07,24,05,17,12.30
2018,07,24,05,18,12.30
2018,07,24,05,19,12.30
2018,07,24,05,20,12.30
2018,07,24,05,21,12.30
2018,07,24,05,22,12.20
2018,07,24,05,23,12.30
2018,07,24,05,24,12.30
2018,07,24,05,25,12.20
2018,07,24,05,26,12.20
2018,07,24,05,27,12.20
2018,07,24,05,28,12.20
2018,07,24,05,29,12.20
2018,07,24,05,30,12.20
2018,07,24,05,31,12.20
2018,07,24,05,32,12.20
2018,07,24,05,33,12.10
2018,07,24,05,34,12.10
2018,07,24,05,35,12.00
2018,07,24,05,36,12.00
2018,07,24,05,37,12.00
2018,07,24,05,38,12.00
2018,07,24,05,39,12.00
2018,07,24,05,40,12.00
2018,07,24,05,41,12.00
2018,07,24,05,42,12.00
2018,07,24,05,43,12.00
2018,07,24,05,44,12.00
2018,07,24,05,45,12.10
2018,07,24,05,46,12.10
2018,07,24,05,47,12.10
2018,07,24,05,48,12.10
2018,07,24,05,49,12.10
2018,07,24,05,50,12.00
2018,07,24,05,51,11.90
2018,07,24,05,52,11.90
2018,07,24,05,53,11.90
2018,07,24,05,54,11.80
2018,07,24,05,55,11.80
2018,07,24,05,56,11.80
2018,07,24,05,57,11.80
2018,07,24,05,58,11.80
2018,07,24,05,59,11.80
2018,07,24,06,00,11.80
2018,07,24,06,01,11.80
2018,07,24,06,02,11.90
2018,07,24,06,03,11.90
2018,07,24,06,04,12.00
2018,07,24,06,05,12.00
2018,07,24,06,06,12.10
2018,07,24,06,07,12.10
2018,07,24,06,08,12.10
2018,07,24,06,09,12.10
2018,07,24,06,10,12.10
2018,07,24,06,11,12.10
2018,07,24,06,12,12.10
2018,07,24,06,13,12.00
2018,07,24,06,14,12.00
2018,07,24,06,15,11.90
2018,07,24,06,16,11.80
2018,07,24,06,17,11.80
2018,07,24,06,18,11.80
2018,07,24,06,19,11.80
2018,07,24,06,20,11.80
2018,07,24,06,21,11.70
2018,07,24,06,22,11.80
2018,07,24,06,23,11.70
2018,07,24,06,24,11.80
2018,07,24,06,25,11.80
2018,07,24,06,26,11.80
2018,07,24,06,27,11.80
2018,07,24,06,28,11.80
2018,07,24,06,29,11.80
2018,07,24,06,30,11.80
2018,07,24,06,31,11.80
2018,07,24,06,32,11.80
2018,07,24,06,33,11.80
2018,07,24,06,34,11.80
2018,07,24,06,35,11.80
2018,07,24,06,36,11.80
2018,07,24,06,37,11.80
2018,07,24,06,38,11.80
2018,07,24,06,39,11.80
2018,07,24,06,40,11.80
2018,07,24,06,41,11.80
2018,07,24,06,42,11.90
2018,07,24,06,43,11.90
2018,07,24,06,44,11.90
2018,07,24,06,45,11.90
2018,07,24,06,46,11.90
2018,07,24,06,47,11.90
2018,07,24,06,48,12.00
2018,07,24,06,49,12.00
2018,07,24,06,50,12.00
2018,07,24,06,51,12.10
2018,07,24,06,52,12.10
2018,07,24,06,53,12.10
2018,07,24,06,54,12.20
2018,07,24,06,55,12.20
2018,07,24,06,56,12.30
2018,07,24,06,57,12.30
2018,07,24,06,58,12.40
2018,07,24,06,59,12.40
2018,07,24,07,00,12.50
2018,07,24,07,01,12.50
2018,07,24,07,02,12.50
2018,07,24,07,03,12.60
2018,07,24,07,04,12.60
2018,07,24,07,05,12.60
2018,07,24,07,06,12.70
2018,07,24,07,07,12.70
2018,07,24,07,08,12.70
2018,07,24,07,09,12.80
2018,07,24,07,10,12.80
2018,07,24,07,11,12.80
2018,07,24,07,12,12.80
2018,07,24,07,13,12.80
2018,07,24,07,14,12.90
2018,07,24,07,15,12.90
2018,07,24,07,16,12.90
2018,07,24,07,17,12.90
2018,07,24,07,18,12.90
2018,07,24,07,19,12.90
2018,07,24,07,20,13.00
2018,07,24,07,21,13.00
2018,07,24,07,22,13.00
2018,07,24,07,23,13.10
2018,07,24,07,24,13.10
2018,07,24,07,25,13.10
2018,07,24,07,26,13.10
2018,07,24,07,27,13.20
2018,07,24,07,28,13.20
2018,07,24,07,29,13.20
2018,07,24,07,30,13.20
2018,07,24,07,31,13.20
2018,07,24,07,32,13.30
2018,07,24,07,33,13.30
2018,07,24,07,34,13.30
2018,07,24,07,35,13.30
2018,07,24,07,36,13.40
2018,07,24,07,37,13.40
2018,07,24,07,38,13.50
2018,07,24,07,39,13.50
2018,07,24,07,40,13.60
2018,07,24,07,41,13.60
2018,07,24,07,42,13.70
2018,07,24,07,43,13.70
2018,07,24,07,44,13.80
2018,07,24,07,45,13.90
2018,07,24,07,46,14.00
2018,07,24,07,47,14.00
2018,07,24,07,48,14.10
2018,07,24,07,49,14.20
2018,07,24,07,50,14.20
2018,07,24,07,51,14.30
2018,07,24,07,52,14.30
2018,07,24,07,53,14.40
2018,07,24,07,54,14.40
2018,07,24,07,55,14.50
2018,07,24,07,56,14.60
2018,07,24,07,57,14.70
2018,07,24,07,58,14.70
2018,07,24,07,59,14.80
2018,07,24,08,00,14.90
2018,07,24,08,01,14.90
2018,07,24,08,02,15.00
2018,07,24,08,03,15.10
2018,07,24,08,04,15.20
2018,07,24,08,05,15.30
2018,07,24,08,06,15.30
2018,07,24,08,07,15.40
2018,07,24,08,08,15.50
2018,07,24,08,09,15.60
2018,07,24,08,10,15.70
2018,07,24,08,11,15.80
2018,07,24,08,12,15.90
2018,07,24,08,13,16.00
2018,07,24,08,14,16.10
2018,07,24,08,15,16.20
2018,07,24,08,16,16.30
2018,07,24,08,17,16.40
2018,07,24,08,18,16.50
2018,07,24,08,19,16.60
2018,07,24,08,20,16.70
2018,07,24,08,21,16.80
2018,07,24,08,22,16.90
2018,07,24,08,23,17.00
2018,07,24,08,24,17.10
2018,07,24,08,25,17.10
2018,07,24,08,26,17.20
2018,07,24,08,27,17.30
2018,07,24,08,28,17.40
2018,07,24,08,29,17.50
2018,07,24,08,30,17.60
2018,07,24,08,31,17.70
2018,07,24,08,32,17.80
2018,07,24,08,33,18.00
2018,07,24,08,34,18.10
2018,07,24,08,35,18.20
2018,07,24,08,36,18.30
2018,07,24,08,37,18.40
2018,07,24,08,38,18.50
2018,07,24,08,39,18.60
2018,07,24,08,40,18.70
2018,07,24,08,41,18.90
2018,07,24,08,42,19.00
2018,07,24,08,43,19.10
2018,07,24,08,44,19.20
2018,07,24,08,45,19.40
2018,07,24,08,46,19.40
2018,07,24,08,47,19.50
2018,07,24,08,48,19.60
2018,07,24,08,49,19.70
2018,07,24,08,50,19.80
2018,07,24,08,51,19.80
2018,07,24,08,52,19.90
2018,07,24,08,53,20.00
2018,07,24,08,54,20.10
2018,07,24,08,55,20.10
2018,07,24,08,56,20.10
2018,07,24,08,57,20.10
2018,07,24,08,58,20.20
2018,07,24,08,59,20.20
2018,07,24,09,00,20.20
2018,07,24,09,01,20.30
2018,07,24,09,02,20.30
2018,07,24,09,03,20.40
2018,07,24,09,04,20.40
2018,07,24,09,05,20.50
2018,07,24,09,06,20.50
2018,07,24,09,07,20.60
2018,07,24,09,08,20.60
2018,07,24,09,09,20.60
2018,07,24,09,10,20.60
2018,07,24,09,11,20.70
2018,07,24,09,12,20.70
2018,07,24,09,13,20.70
2018,07,24,09,14,20.80
2018,07,24,09,15,20.80
2018,07,24,09,16,20.80
2018,07,24,09,17,20.80
2018,07,24,09,18,20.90
2018,07,24,09,19,20.90
2018,07,24,09,20,21.00
2018,07,24,09,21,21.00
2018,07,24,09,22,21.10
2018,07,24,09,23,21.20
2018,07,24,09,24,21.20
2018,07,24,09,25,21.30
2018,07,24,09,26,21.30
2018,07,24,09,27,21.40
2018,07,24,09,28,21.50
2018,07,24,09,29,21.60
2018,07,24,09,30,21.60
2018,07,24,09,31,21.70
2018,07,24,09,32,21.80
2018,07,24,09,33,21.80
2018,07,24,09,34,21.80
2018,07,24,09,35,21.90
2018,07,24,09,36,21.90
2018,07,24,09,37,21.90
2018,07,24,09,38,21.90
2018,07,24,09,39,21.90
2018,07,24,09,40,21.90
2018,07,24,09,41,22.00
2018,07,24,09,42,22.20
2018,07,24,09,43,22.30
2018,07,24,09,44,22.40
2018,07,24,09,45,22.50
2018,07,24,09,46,22.50
2018,07,24,09,47,22.60
2018,07,24,09,48,22.70
2018,07,24,09,49,22.80
2018,07,24,09,50,22.80
2018,07,24,09,51,22.80
2018,07,24,09,52,22.90
2018,07,24,09,53,22.90
2018,07,24,09,54,22.90
2018,07,24,09,55,23.00
2018,07,24,09,56,23.00
2018,07,24,09,57,23.00
2018,07,24,09,58,23.00
2018,07,24,09,59,23.00
2018,07,24,10,00,22.90
2018,07,24,10,01,22.90
2018,07,24,10,02,22.90
2018,07,24,10,03,22.80
2018,07,24,10,04,22.80
2018,07,24,10,05,22.80
2018,07,24,10,06,22.80
2018,07,24,10,07,22.80
2018,07,24,10,08,22.80
2018,07,24,10,09,22.70
2018,07,24,10,10,22.70
2018,07,24,10,11,22.70
2018,07,24,10,12,22.70
2018,07,24,10,13,22.80
2018,07,24,10,14,22.90
2018,07,24,10,15,22.90
2018,07,24,10,16,23.00
2018,07,24,10,17,23.10
2018,07,24,10,18,23.20
2018,07,24,10,19,23.30
2018,07,24,10,20,23.30
2018,07,24,10,21,23.30
2018,07,24,10,22,23.40
2018,07,24,10,23,23.40
2018,07,24,10,24,23.50
2018,07,24,10,25,23.60
2018,07,24,10,26,23.60
2018,07,24,10,27,23.70
2018,07,24,10,28,23.70
2018,07,24,10,29,23.70
2018,07,24,10,30,23.80
2018,07,24,10,31,23.80
2018,07,24,10,32,23.80
2018,07,24,10,33,23.80
2018,07,24,10,34,23.80
2018,07,24,10,35,23.80
2018,07,24,10,36,23.90
2018,07,24,10,37,23.90
2018,07,24,10,38,23.90
2018,07,24,10,39,23.90
2018,07,24,10,40,23.90
2018,07,24,10,41,23.80
2018,07,24,10,42,23.90
2018,07,24,10,43,23.90
2018,07,24,10,44,24.00
2018,07,24,10,45,24.00
2018,07,24,10,46,24.10
2018,07,24,10,47,24.10
2018,07,24,10,48,24.10
2018,07,24,10,49,24.10
2018,07,24,10,50,24.10
2018,07,24,10,51,24.10
2018,07,24,10,52,24.10
2018,07,24,10,53,24.10
2018,07,24,10,54,24.20
2018,07,24,10,55,24.30
2018,07,24,10,56,24.30
2018,07,24,10,57,24.30
2018,07,24,10,58,24.30
2018,07,24,10,59,24.30
2018,07,24,11,00,24.30
2018,07,24,11,01,24.30
2018,07,24,11,02,24.30
2018,07,24,11,03,24.20
2018,07,24,11,04,24.20
2018,07,24,11,05,24.10
2018,07,24,11,06,24.20
2018,07,24,11,07,24.20
2018,07,24,11,08,24.20
2018,07,24,11,09,24.30
2018,07,24,11,10,24.30
2018,07,24,11,11,24.30
2018,07,24,11,12,24.40
2018,07,24,11,13,24.50
2018,07,24,11,14,24.60
2018,07,24,11,15,24.60
2018,07,24,11,16,24.60
2018,07,24,11,17,24.60
2018,07,24,11,18,24.60
2018,07,24,11,19,24.60
2018,07,24,11,20,24.70
2018,07,24,11,21,24.70
2018,07,24,11,22,24.80
2018,07,24,11,23,24.80
2018,07,24,11,24,24.80
2018,07,24,11,25,24.80
2018,07,24,11,26,24.80
2018,07,24,11,27,24.80
2018,07,24,11,28,24.90
2018,07,24,11,29,24.90
2018,07,24,11,30,24.70
2018,07,24,11,31,24.70
2018,07,24,11,32,24.70
2018,07,24,11,33,24.70
2018,07,24,11,34,24.70
2018,07,24,11,35,24.70
2018,07,24,11,36,24.80
2018,07,24,11,37,24.80
2018,07,24,11,38,24.80
2018,07,24,11,39,24.80
2018,07,24,11,40,24.90
2018,07,24,11,41,24.90
2018,07,24,11,42,24.80
2018,07,24,11,43,24.90
2018,07,24,11,44,24.90
2018,07,24,11,45,24.90
2018,07,24,11,46,24.90
2018,07,24,11,47,24.90
2018,07,24,11,48,25.00
2018,07,24,11,49,25.10
2018,07,24,11,50,25.20
2018,07,24,11,51,25.20
2018,07,24,11,52,25.20
2018,07,24,11,53,25.20
2018,07,24,11,54,25.20
2018,07,24,11,55,25.20
2018,07,24,11,56,25.30
2018,07,24,11,57,25.30
2018,07,24,11,58,25.40
2018,07,24,11,59,25.40
2018,07,24,12,00,25.40
2018,07,24,12,01,25.30
2018,07,24,12,02,25.30
2018,07,24,12,03,25.30
2018,07,24,12,04,25.30
2018,07,24,12,05,25.40
2018,07,24,12,06,25.40
2018,07,24,12,07,25.50
2018,07,24,12,08,25.60
2018,07,24,12,09,25.70
2018,07,24,12,10,25.80
2018,07,24,12,11,25.80
2018,07,24,12,12,25.90
2018,07,24,12,13,25.90
2018,07,24,12,14,25.90
2018,07,24,12,15,25.80
2018,07,24,12,16,25.80
2018,07,24,12,17,25.80
2018,07,24,12,18,25.80
2018,07,24,12,19,25.90
2018,07,24,12,20,26.10
2018,07,24,12,21,26.20
2018,07,24,12,22,26.20
2018,07,24,12,23,26.30
2018,07,24,12,24,26.30
2018,07,24,12,25,26.40
2018,07,24,12,26,26.40
2018,07,24,12,27,26.40
2018,07,24,12,28,26.50
2018,07,24,12,29,26.60
2018,07,24,12,30,26.60
2018,07,24,12,31,26.60
2018,07,24,12,32,26.70
2018,07,24,12,33,26.70
2018,07,24,12,34,26.70
2018,07,24,12,35,26.80
2018,07,24,12,36,26.70
2018,07,24,12,37,26.60
2018,07,24,12,38,26.60
2018,07,24,12,39,26.60
2018,07,24,12,40,26.70
2018,07,24,12,41,26.70
2018,07,24,12,42,26.70
2018,07,24,12,43,26.70
2018,07,24,12,44,26.70
2018,07,24,12,45,26.70
2018,07,24,12,46,26.60
2018,07,24,12,47,26.60
2018,07,24,12,48,26.60
2018,07,24,12,49,26.60
2018,07,24,12,50,26.60
2018,07,24,12,51,26.60
2018,07,24,12,52,26.60
2018,07,24,12,53,26.60
2018,07,24,12,54,26.60
2018,07,24,12,55,26.60
2018,07,24,12,56,26.60
2018,07,24,12,57,26.60
2018,07,24,12,58,26.60
2018,07,24,12,59,26.70
2018,07,24,13,00,26.70
2018,07,24,13,01,26.70
2018,07,24,13,02,26.70
2018,07,24,13,03,26.70
2018,07,24,13,04,26.70
2018,07,24,13,05,26.70
2018,07,24,13,06,26.80
2018,07,24,13,07,26.80
2018,07,24,13,08,26.90
2018,07,24,13,09,27.00
2018,07,24,13,10,27.00
2018,07,24,13,11,27.10
2018,07,24,13,12,27.20
2018,07,24,13,13,27.20
2018,07,24,13,14,27.30
2018,07,24,13,15,27.30
2018,07,24,13,16,27.30
2018,07,24,13,17,27.20
2018,07,24,13,18,27.20
2018,07,24,13,19,27.20
2018,07,24,13,20,27.20
2018,07,24,13,21,27.20
2018,07,24,13,22,27.20
2018,07,24,13,23,27.30
2018,07,24,13,24,27.40
2018,07,24,13,25,27.50
2018,07,24,13,26,27.60
2018,07,24,13,27,27.70
2018,07,24,13,28,27.70
2018,07,24,13,29,27.70
2018,07,24,13,30,27.80
2018,07,24,13,31,27.80
2018,07,24,13,32,27.90
2018,07,24,13,33,27.90
2018,07,24,13,34,27.80
2018,07,24,13,35,27.70
2018,07,24,13,36,27.70
2018,07,24,13,37,27.70
2018,07,24,13,38,27.80
2018,07,24,13,39,27.90
2018,07,24,13,40,28.00
2018,07,24,13,41,28.10
2018,07,24,13,42,28.10
2018,07,24,13,43,28.10
2018,07,24,13,44,28.10
2018,07,24,13,45,28.10
2018,07,24,13,46,28.10
2018,07,24,13,47,28.20
2018,07,24,13,48,28.20
2018,07,24,13,49,28.20
2018,07,24,13,50,28.30
2018,07,24,13,51,28.30
2018,07,24,13,52,28.30
2018,07,24,13,53,28.20
2018,07,24,13,54,28.20
2018,07,24,13,55,28.20
2018,07,24,13,56,28.20
2018,07,24,13,57,28.20
2018,07,24,13,58,28.20
2018,07,24,13,59,28.20
2018,07,24,14,00,28.20
2018,07,24,14,01,28.30
2018,07,24,14,02,28.30
2018,07,24,14,03,28.30
2018,07,24,14,04,28.30
2018,07,24,14,05,28.30
2018,07,24,14,06,28.20
2018,07,24,14,07,28.20
2018,07,24,14,08,28.20
2018,07,24,14,09,28.20
2018,07,24,14,10,28.10
2018,07,24,14,11,28.00
2018,07,24,14,12,28.00
2018,07,24,14,13,27.90
2018,07,24,14,14,27.90
2018,07,24,14,15,27.90
2018,07,24,14,16,27.80
2018,07,24,14,17,27.80
2018,07,24,14,18,27.80
2018,07,24,14,19,27.80
2018,07,24,14,20,27.90
2018,07,24,14,21,27.90
2018,07,24,14,22,27.80
2018,07,24,14,23,27.80
2018,07,24,14,24,27.70
2018,07,24,14,25,27.70
2018,07,24,14,26,27.70
2018,07,24,14,27,27.70
2018,07,24,14,28,27.70
2018,07,24,14,29,27.80
2018,07,24,14,30,27.80
2018,07,24,14,31,27.80
2018,07,24,14,32,27.80
2018,07,24,14,33,27.80
2018,07,24,14,34,27.80
2018,07,24,14,35,27.90
2018,07,24,14,36,28.00
2018,07,24,14,37,28.10
2018,07,24,14,38,28.10
2018,07,24,14,39,28.20
2018,07,24,14,40,28.20
2018,07,24,14,41,28.20
2018,07,24,14,42,28.30
2018,07,24,14,43,28.30
2018,07,24,14,44,28.40
2018,07,24,14,45,28.40
2018,07,24,14,46,28.40
2018,07,24,14,47,28.50
2018,07,24,14,48,28.60
2018,07,24,14,49,28.60
2018,07,24,14,50,28.70
2018,07,24,14,51,28.80
2018,07,24,14,52,28.80
2018,07,24,14,53,28.80
2018,07,24,14,54,28.80
2018,07,24,14,55,28.80
2018,07,24,14,56,28.90
2018,07,24,14,57,28.90
2018,07,24,14,58,28.90
2018,07,24,14,59,28.90
2018,07,24,15,00,28.90
2018,07,24,15,01,28.90
2018,07,24,15,02,28.90
2018,07,24,15,03,28.90
2018,07,24,15,04,29.00
2018,07,24,15,05,29.10
2018,07,24,15,06,29.20
2018,07,24,15,07,29.30
2018,07,24,15,08,29.30
2018,07,24,15,09,29.20
2018,07,24,15,10,29.10
2018,07,24,15,11,29.00
2018,07,24,15,12,29.00
2018,07,24,15,13,29.00
2018,07,24,15,14,29.10
2018,07,24,15,15,29.20
2018,07,24,15,16,29.20
2018,07,24,15,17,29.30
2018,07,24,15,18,29.40
2018,07,24,15,19,29.40
2018,07,24,15,20,29.40
2018,07,24,15,21,29.40
2018,07,24,15,22,29.40
2018,07,24,15,23,29.40
2018,07,24,15,24,29.40
2018,07,24,15,25,29.40
2018,07,24,15,26,29.30
2018,07,24,15,27,29.40
2018,07,24,15,28,29.40
2018,07,24,15,29,29.40
2018,07,24,15,30,29.40
2018,07,24,15,31,29.50
2018,07,24,15,32,29.50
2018,07,24,15,33,29.60
2018,07,24,15,34,29.60
2018,07,24,15,35,29.70
2018,07,24,15,36,29.80
2018,07,24,15,37,29.90
2018,07,24,15,38,30.00
2018,07,24,15,39,30.00
2018,07,24,15,40,30.10
2018,07,24,15,41,30.10
2018,07,24,15,42,30.20
2018,07,24,15,43,30.30
2018,07,24,15,44,30.30
2018,07,24,15,45,30.30
2018,07,24,15,46,30.30
2018,07,24,15,47,30.20
2018,07,24,15,48,30.20
2018,07,24,15,49,30.20
2018,07,24,15,50,30.20
2018,07,24,15,51,30.20
2018,07,24,15,52,30.20
2018,07,24,15,53,30.20
2018,07,24,15,54,30.20
2018,07,24,15,55,30.30
2018,07,24,15,56,30.30
2018,07,24,15,57,30.40
2018,07,24,15,58,30.40
2018,07,24,15,59,30.50
2018,07,24,16,00,30.60
2018,07,24,16,01,30.60
2018,07,24,16,02,30.60
2018,07,24,16,03,30.60
2018,07,24,16,04,30.50
2018,07,24,16,05,30.50
2018,07,24,16,06,30.50
2018,07,24,16,07,30.50
2018,07,24,16,08,30.50
2018,07,24,16,09,30.50
2018,07,24,16,10,30.50
2018,07,24,16,11,30.40
2018,07,24,16,12,30.40
2018,07,24,16,13,30.40
2018,07,24,16,14,30.40
2018,07,24,16,15,30.50
2018,07,24,16,16,30.50
2018,07,24,16,17,30.60
2018,07,24,16,18,30.60
2018,07,24,16,19,30.60
2018,07,24,16,20,30.70
2018,07,24,16,21,30.70
2018,07,24,16,22,30.80
2018,07,24,16,23,30.90
2018,07,24,16,24,31.00
2018,07,24,16,25,31.00
2018,07,24,16,26,31.10
2018,07,24,16,27,31.20
2018,07,24,16,28,31.20
2018,07,24,16,29,31.20
2018,07,24,16,30,31.30
2018,07,24,16,31,31.20
2018,07,24,16,32,31.20
2018,07,24,16,33,31.20
2018,07,24,16,34,31.20
2018,07,24,16,35,31.20
2018,07,24,16,36,31.10
2018,07,24,16,37,31.10
2018,07,24,16,38,31.10
2018,07,24,16,39,31.20
2018,07,24,16,40,31.20
2018,07,24,16,41,31.30
2018,07,24,16,42,31.40
2018,07,24,16,43,31.40
2018,07,24,16,44,31.40
2018,07,24,16,45,31.40
2018,07,24,16,46,31.30
2018,07,24,16,47,31.30
2018,07,24,16,48,31.20
2018,07,24,16,49,31.20
2018,07,24,16,50,31.20
2018,07,24,16,51,31.20
2018,07,24,16,52,31.20
2018,07,24,16,53,31.20
2018,07,24,16,54,31.20
2018,07,24,16,55,31.20
2018,07,24,16,56,31.20
2018,07,24,16,57,31.20
2018,07,24,16,58,31.30
2018,07,24,16,59,31.30
2018,07,24,17,00,31.30
2018,07,24,17,01,31.30
2018,07,24,17,02,31.30
2018,07,24,17,03,31.30
2018,07,24,17,04,31.30
2018,07,24,17,05,31.30
2018,07,24,17,06,31.40
2018,07,24,17,07,31.40
2018,07,24,17,08,31.40
2018,07,24,17,09,31.50
2018,07,24,17,10,31.60
2018,07,24,17,11,31.60
2018,07,24,17,12,31.60
2018,07,24,17,13,31.60
2018,07,24,17,14,31.70
2018,07,24,17,15,31.70
2018,07,24,17,16,31.70
2018,07,24,17,17,31.70
2018,07,24,17,18,31.60
2018,07,24,17,19,31.60